TimeCST,TemperatureF,Dew PointF,Humidity,Sea Level PressureIn,VisibilityMPH,Wind Direction,Wind SpeedMPH,Gust SpeedMPH,PrecipitationIn,Events,Conditions,WindDirDegrees,DateUTC
12:53 AM,39.9,33.1,77,30.37,10.0,SSE,3.5,-,N/A,,Clear,160,2012-11-17 06:53:00
1:53 AM,39.9,33.1,77,30.36,10.0,SE,5.8,-,N/A,,Clear,140,2012-11-17 07:53:00
2:53 AM,37.9,32.0,79,30.37,10.0,SSE,5.8,-,N/A,,Clear,150,2012-11-17 08:53:00
3:53 AM,37.9,32.0,79,30.37,10.0,SSE,3.5,-,N/A,,Clear,160,2012-11-17 09:53:00
4:53 AM,37.0,32.0,82,30.37,10.0,SE,3.5,-,N/A,,Clear,140,2012-11-17 10:53:00
5:53 AM,36.0,30.9,82,30.37,9.0,SSE,3.5,-,N/A,,Clear,150,2012-11-17 11:53:00
6:53 AM,36.0,30.9,82,30.38,9.0,SE,5.8,-,N/A,,Clear,140,2012-11-17 12:53:00
7:53 AM,36.0,30.9,82,30.40,8.0,SSE,5.8,-,N/A,,Clear,150,2012-11-17 13:53:00
8:53 AM,44.1,35.1,71,30.40,10.0,South,6.9,-,N/A,,Clear,180,2012-11-17 14:53:00
9:53 AM,51.1,33.1,50,30.39,10.0,South,16.1,20.7,N/A,,Clear,180,2012-11-17 15:53:00
10:53 AM,54.0,32.0,43,30.38,10.0,South,15.0,23.0,N/A,,Clear,180,2012-11-17 16:53:00
11:53 AM,55.9,30.0,37,30.35,10.0,South,19.6,25.3,N/A,,Clear,170,2012-11-17 17:53:00
12:53 PM,57.9,32.0,37,30.33,10.0,SSW,15.0,21.9,N/A,,Clear,200,2012-11-17 18:53:00
1:53 PM,59.0,30.9,35,30.31,10.0,South,12.7,19.6,N/A,,Clear,170,2012-11-17 19:53:00
2:53 PM,59.0,30.0,33,30.29,10.0,South,18.4,-,N/A,,Clear,170,2012-11-17 20:53:00
3:53 PM,55.9,28.0,34,30.29,10.0,South,15.0,-,N/A,,Clear,170,2012-11-17 21:53:00
4:53 PM,53.1,28.9,40,30.28,10.0,SSE,6.9,-,N/A,,Clear,150,2012-11-17 22:53:00
5:53 PM,50.0,30.0,46,30.28,10.0,SSE,6.9,-,N/A,,Clear,160,2012-11-17 23:53:00
6:53 PM,46.0,30.0,54,30.30,10.0,SSE,3.5,-,N/A,,Clear,150,2012-11-18 00:53:00
7:53 PM,43.0,30.0,60,30.30,10.0,SSE,5.8,-,N/A,,Clear,150,2012-11-18 01:53:00
8:53 PM,45.0,30.9,58,30.29,10.0,SE,6.9,-,N/A,,Clear,140,2012-11-18 02:53:00
9:53 PM,43.0,30.9,62,30.29,10.0,SSE,5.8,-,N/A,,Clear,150,2012-11-18 03:53:00
10:53 PM,44.1,32.0,63,30.27,10.0,SSE,11.5,-,N/A,,Clear,160,2012-11-18 04:53:00
11:53 PM,45.0,30.9,58,30.27,10.0,South,11.5,-,N/A,,Clear,170,2012-11-18 05:53:00